Regional Weather Roundup
Issued by NWS

Home | Current Version | Previous Version | Text Only | Print | Product List | Glossary On
Versions: 1 2 3 4 5 6 7 8 9 10 11 12 13 14 15 16 17 18 19 20 21 22 23 24 25 26 27 28 29 30 31 32 33 34 35 36 37 38 39 40 41 42 43 44 45 46 47 48 49 50
000
ASUS43 KMKX 271621
RWRWI

WISCONSIN REGIONAL WEATHER ROUNDUP
NATIONAL WEATHER SERVICE MILWAUKEE/SULLIVAN WI
1100 AM CDT THU JUL 27 2017

NOTE: "FAIR" INDICATES FEW OR NO CLOUDS BELOW 12,000 FEET WITH NO
SIGNIFICANT WEATHER AND/OR OBSTRUCTIONS TO VISIBILITY.

WIZ001-002-006>008-014>016-023>028-271700-
NORTHWEST WISCONSIN

CITY           SKY/WX    TMP DP  RH WIND       PRES   REMARKS
SUPERIOR ARPT  NOT AVBL
ASHLAND        SUNNY     76  64  66 N7        30.10
HAYWARD        SUNNY     77  59  53 E6        30.10S
SIREN          SUNNY     77  59  54 CALM      30.10S
CUMBERLAND     SUNNY     73  55  53 CALM      30.10S
RICE LAKE      SUNNY     77  61  57 CALM      30.10S
CHETEK         SUNNY     77  62  59 CALM      30.09S
LADYSMITH      SUNNY     78  60  53 E5        30.11S
EAU CLAIRE     SUNNY     78  61  55 NE6       30.06S HX  80
MENOMONIE      SUNNY     78  62  57 NE5       30.08S
NEW RICHMOND   SUNNY     78  59  52 NE7       30.09S
OSCEOLA        SUNNY     78  62  56 N5        30.11S HX  80
$$

WIZ003>005-009-010-017-018-271700-
NORTH CENTRAL WISCONSIN

CITY           SKY/WX    TMP DP  RH WIND       PRES   REMARKS
MANITOWISH WTR PTSUNNY   73  57  56 N6        30.11R
ARBOR VITAE    MOSUNNY   77  60  54 NE3       30.10R
WOODRUFF       MOSUNNY   77  60  54 NE3       30.10R
RHINELANDER    SUNNY     75  57  53 VRB7      30.10R
EAGLE RIVER    MOSUNNY   74  56  52 E5        30.10R
LAND O LAKES   MOSUNNY   74  55  51 NE3       30.12R
PHILLIPS       MOSUNNY   74  59  59 NW5       30.10R
TOMAHAWK         N/A     75  58  54 E3        30.09S
MEDFORD        SUNNY     75  60  58 NE9       30.08S
MERRILL        SUNNY     77  61  57 SE6       30.07S
$$

WIZ029-030-035-036-043>047-271700-
CENTRAL WISCONSIN

CITY           SKY/WX    TMP DP  RH WIND       PRES   REMARKS
WAUSAU         SUNNY     76  59  55 E12       30.04F
MOSINEE        MOSUNNY   75  61  60 E7        30.07S
MARSHFIELD     SUNNY     78  61  55 NE8       30.06R HX  80
STEVENS POINT  SUNNY     75  60  60 E6        30.06R
WAUPACA        SUNNY     80  60  50 N7        30.04R HX  81
WAUTOMA        SUNNY     78  61  55 NE6       30.03S HX  80
WISC RAPIDS    SUNNY     80  60  50 E8        30.06R HX  81
CAMP DOUGLAS   MOSUNNY   79  63  57 E6        30.04R HX  80
$$

WIZ011>013-019>022-031-037>040-048>050-271700-
NORTHEAST WISCONSIN

CITY           SKY/WX    TMP DP  RH WIND       PRES   REMARKS
ANTIGO         MOSUNNY   75  60  58 NE7       30.08S
SHAWANO        SUNNY     78  60  53 NE8       30.04S HX  80
OCONTO         SUNNY     75  60  59 NE8       30.03S
STURGEON BAY     N/A     73  65  75 N8        30.04R
GREEN BAY      SUNNY     77  67  71 NE9       30.03S
MANITOWOC      SUNNY     75  59  57 NE8       30.02S
APPLETON       SUNNY     77  54  44 E13       30.02R
CLINTONVILLE   SUNNY    N/A N/A N/A NE7       30.04S
OSHKOSH        SUNNY     75  63  66 NE12      30.02S
$$

WIZ032>034-041-042-053>061-271700-
SOUTHWEST WISCONSIN

CITY           SKY/WX    TMP DP  RH WIND       PRES   REMARKS
LA CROSSE      SUNNY     81  65  58 NW8       30.04R HX  83
SPARTA         SUNNY     79  57  47 NE8       30.05S HX  80
VIROQUA        SUNNY     77  62  60 NE8       30.06S
BOSCOBEL       SUNNY     80  60  50 E8        30.02S HX  81
PRAIRIE DU CHI SUNNY     79  61  54 NE7       30.02R HX  80
PLATTEVILLE    SUNNY     78  68  72 NE8       30.02S HX  80
$$

WIZ056-057-062-063-064-067-068-271700-
SOUTH CENTRAL WISCONSIN

CITY           SKY/WX    TMP DP  RH WIND       PRES   REMARKS
REEDSBURG      SUNNY     77  61  57 NE8       30.03S
BARABOO/DELLS  SUNNY     77  59  53 NE7       30.04R
LONE ROCK      SUNNY     79  63  57 VRB5      30.02R HX  80
MINERAL POINT  SUNNY     79  68  69 E9        30.03R HX  81
MADISON        SUNNY     78  61  55 NE13      30.01S HX  80
MIDDLETON      SUNNY     79  62  56 E9        30.02S HX  81
WATERTOWN      SUNNY     77  64  64 NE12      30.01S
MONROE         MOSUNNY   77  68  73 NE12      30.00S
JANESVILLE     NOT AVBL
$$

WIZ051-052-058>065-066-070>072-271700-
SOUTHEAST WISCONSIN

CITY           SKY/WX    TMP DP  RH WIND       PRES   REMARKS
MILWAUKEE      MOSUNNY   75  67  76 N18G24    29.99R
WAUKESHA       SUNNY     75  57  53 NE17      30.01R
MILWAUKEE/TIMM SUNNY     75  55  50 NE14G24   30.01R
RACINE         CLOUDY    72  68  87 N16G25    30.00R
KENOSHA        MOSUNNY   77  67  71 N13       29.98S
FOND DU LAC    SUNNY     77  59  53 NE10      30.02S
SHEBOYGAN      SUNNY     75  62  64 NE15      30.01S
WEST BEND      SUNNY     75  61  60 NE10      30.01S
JUNEAU         SUNNY     76  61  60 NE8       30.03S
$$

LSZ147-162-271700-
LAKE SUPERIOR

STATION/POSITION TIME  TEMP    WIND        PRES    WAVE
                       AIR SEA DIR/SP/G            HT/PER
                 (UTC) (F)     (DEG/KT/KT) (MB)    (FT/S)
W MID LAKE BUOY  1550   55 53   40/  4/  6 1019.6R   0
DEVILS ISLAND    1600   62      40/  6/  7 1019.5R
SAXON HARBOR     1540   68     320/  5/  5 1018.6S
$$

LMZ867-665-643>646-271700-
LAKE MICHIGAN

STATION/POSITION TIME  TEMP    WIND        PRES    WAVE
                       AIR SEA DIR/SP/G            HT/PER
                 (UTC) (F)     (DEG/KT/KT) (MB)    (FT/S)
CHAMBERS ISLAND  1540   69      10/ 11/ 12 1016.6R
S GREEN BAY BUOY 1600   69 71   30/ 12/ 16 1016.8
N MID LAKE BUOY  1550   65 66   30/ 10/ 12 1017.2R   2/ 4
NORTHPORT PIER   1540   69      70/  8/ 10 1016.9S
KEWAUNEE LAKESHO 1554   71      20/  7/ 12 1015.9R
SHEBOYGAN LAKESH 1600   69      10/ 14/ 16 1015.8R
PORT WASHINGTON  1540   74      40/ 14/ 19 1016.9R
ATWATER BUOY     1509   69 69   10/ 14/ 17 1015.5R
MILWAUKEE LAKESH 1600   71      20/ 17/ 20   N/A
S MID LAKE BUOY  1550   70 71   10/ 12/ 14 1014.1R   1/ 3
KENOSHA   LAKESH 1600   69      10/ 16/ 19 1014.9
$$

TC  - TEMPERATURE IN CELSIUS
VSB - VISIBILITY IN STATUTE MILES
WCI - WIND CHILL INDEX
HX  - HEAT INDEX




USA.gov is the U.S. government's official web portal to all federal, state and local government web resources and services.